Torna al catalogo

FENGYUN 1C DEB

AttivoSSO
NORAD 36224·DEBRIS·🇨🇳 China

Lanciato May 10, 1999 da Taiyuan Satellite Launch Center

Loading…

Prossimi Passaggi (prossime 24 ore)

TLE

In scadenzaSource: Space-Track

Epoca: Sep 9, 2026, 08:38 UTC

1 36224U 99025DUZ 26252.36007830  .00000091  00000-0  68553-4 0  9997
2 36224  98.7438 298.8883 0113670 302.2661  56.7537 14.12877828682537

Traccia FENGYUN 1C DEB in tempo reale con AllMySat

Download on the App Store